[[{"header":{"parameterUnit":"m.s-1","parameterCategory":1,"la1":30.2991,"la2":30.254,"lo1":-89.0895,"lo2":-89.0444,"dy":0.0017,"dx":0.0017,"nx":28,"ny":28,"refTime":"2024-05-13T21:00:00:Z","depth":0,"parameterNumber":2,"parameterNumberName":"U-component_of_WINDS"},"data":[0,0,0,0,0,0,0,0,0,0,0,0,0,0,0,0,0,0,0,0,0,0,0,0,0,0,0,0,0,0,0,0,0,0,0,0,0,0,0,0,0,0,0,0,0,0,0,0,0,0,0,0,0,0,0,0,0,0,-6.9156,-6.9158,0,-6.9334,-6.9336,-6.9338,-6.9214,-6.9209,-6.9203,-6.9198,-6.9389,-6.9399,-6.9409,0,0,0,0,0,0,0,0,0,0,0,0,0,-6.8717,-6.8726,-6.9156,-6.9158,-6.916,-6.9334,-6.9336,-6.9339,-6.9215,-6.9209,-6.9202,-6.9195,-6.9386,-6.9398,-6.941,0,0,0,0,0,0,0,0,0,0,0,0,0,-6.8903,-6.8729,-6.9155,-6.9119,-6.9118,-6.9333,-6.9336,-6.9339,-6.9217,-6.9208,-6.92,-6.9192,-6.9382,-6.9397,-6.9412,-6.9675,0,0,-6.9459,-6.9466,0,0,0,0,0,0,0,0,-6.8893,-6.8919,-6.9122,-6.9122,-6.9121,-6.9243,-6.9252,-6.9452,-6.9219,-6.918,-6.9198,-6.9188,-6.9348,-6.9366,-6.9418,-6.9684,-6.9692,-6.946,-6.947,-6.9476,-6.9481,0,0,0,0,0,0,0,-6.888,-6.8911,-6.9226,-6.9125,-6.9125,-6.9097,-6.9114,-6.9289,-6.9309,-6.9182,-6.9174,-6.9196,-6.9346,-6.9403,-6.9421,-6.9695,-6.946,-6.9474,-6.9483,-6.9489,-7.0189,-7.0198,0,0,0,0,0,0,-6.8869,-6.8901,-6.9221,-6.9232,-6.8983,-6.9112,-6.9131,-6.9213,-6.9307,-6.9313,-6.9203,-6.919,-6.9381,-6.9403,-6.9428,-6.9742,-6.9476,-6.9491,-6.95,-7.018,-7.0191,-7.0201,0,0,0,0,0,0,-6.886,-6.8899,-6.9213,-6.9064,-6.9102,-6.9128,-6.9221,-6.9221,-6.9277,-6.9322,-6.9326,-6.9257,-6.9375,-6.9406,-6.9614,-6.9747,-6.9498,-6.9512,-7.0169,-7.0183,-7.0196,-7.0374,0,0,0,0,0,0,-6.8848,-6.8896,-6.8994,-6.9067,-6.911,-6.9395,-6.9229,-6.923,-6.9303,-6.9288,-6.9374,-6.938,-6.9371,-6.9592,-6.963,-6.9764,-6.9524,-7.0157,-7.0175,-7.0192,-7.0356,-7.0392,-7.0423,0,0,0,0,0,-6.8833,-6.9038,-6.9,-6.9039,-6.9233,-6.9403,-6.9428,-6.941,-6.9315,-6.9415,-6.9444,-6.9378,-6.9727,-6.9614,-6.9656,-6.9797,-7.0149,-7.017,-7.0191,-7.0341,-7.0385,-7.0422,0,0,0,0,0,0,-6.8982,-6.9047,-6.9005,-6.924,-6.9316,-6.9381,-6.9506,-6.9457,-6.9565,-6.9546,-6.9522,-6.9543,-6.9762,-6.98,-6.9674,-7.0058,-6.9923,-6.9954,-7.0024,-7.0066,-7.0099,-7.0084,-6.9537,0,0,0,0,0,-6.9042,-6.9172,-6.9223,-6.9425,-6.9466,-6.948,-6.9554,-6.9534,-6.9613,-6.9646,-6.969,-6.9772,-6.9901,-6.9986,-7.0106,-7.0363,-7.0381,-7.048,-7.0514,-7.0541,-7.0567,-7.0707,-7.0752,-7.027,-7.027,-7.027,0,0,-6.9168,-6.922,-6.9303,-6.9457,-6.9513,-6.9651,-6.9508,-6.9659,-6.9762,-6.967,-6.9868,-6.9905,-6.9995,-7.0229,-7.0334,-7.0268,-7.0705,-7.0568,-7.0589,-7.06,-7.0733,-7.0779,-7.0819,-7.0284,-7.0282,-7.028,0,0,-6.9467,-6.9519,-6.9693,-6.9753,-6.984,-6.9849,-6.9892,-6.9965,-6.9985,-7.0183,-7.0117,-7.0241,-7.0463,-7.053,-7.0594,-7.0922,-7.0866,-7.0963,-7.1136,-7.1273,-7.1311,-7.1344,-7.1462,-7.1504,-7.0989,-7.0989,-7.099,0,-6.9612,-6.9813,-6.9789,-6.9946,-7.0016,-6.9938,-7.0116,-7.0176,-7.0301,-7.0353,-7.0277,-7.0554,-7.0609,-7.0858,-7.0938,-7.0993,-7.1042,-7.0951,-7.1307,-7.134,-7.1371,-7.1483,-7.1527,-7.1,-7.0999,-7.0998,-7.0997,0,-6.9988,-7.013,-7.0261,-7.038,-7.0466,-7.0632,-7.0637,-7.0727,-7.0702,-7.072,-7.0925,-7.099,-7.1122,-7.1181,-7.1158,-7.1428,-7.1384,-7.1309,-7.1172,-7.1429,-7.1533,-7.1576,-7.1016,-7.1012,-7.1009,-7.1006,0,0,-7.0383,-7.0488,-7.0536,-7.059,-7.0682,-7.0793,-7.0958,-7.1086,-7.1164,-7.1254,-7.1393,-7.1584,-7.1515,-7.1587,-7.1572,-7.1692,-7.1949,-7.1602,-7.1604,-7.1664,-7.2253,-7.2308,-7.2358,-7.1914,-7.1922,-7.1928,-7.2245,0,-7.0686,-7.0969,-7.0954,-7.1221,-7.1353,-7.1282,-7.1426,-7.1501,-7.1524,-7.1641,-7.1667,-7.1802,-7.1701,-7.1744,-7.186,-7.1893,-7.2067,-7.1871,-7.2045,-7.2051,-7.2022,-7.2412,-7.2471,-7.2766,-7.2286,-7.2293,-7.2298,0,-7.1076,-7.1176,-7.1456,-7.153,-7.1585,-7.1714,-7.1831,-7.1944,-7.2028,-7.2037,-7.2119,-7.2085,-7.2256,-7.2117,-7.2354,-7.2221,-7.2292,-7.232,-7.2331,-7.2345,-7.2188,-7.2437,-7.286,-7.2904,-7.2362,-7.2357,-7.2352,0,-7.1335,-7.1541,-7.1734,-7.1783,-7.1875,-7.1968,-7.2011,-7.2087,-7.2166,-7.227,-7.2321,-7.2445,-7.2513,-7.2612,-7.2613,-7.2512,-7.2854,-7.2715,-7.2867,-7.2867,-7.294,-7.2935,-7.338,-7.2989,-7.2988,-7.2987,-7.2987,0,-7.1673,-7.1847,-7.1852,-7.1971,-7.2165,-7.2149,-7.2343,-7.2377,-7.2446,-7.2573,-7.2522,-7.2644,-7.2639,-7.2764,-7.2768,-7.2964,-7.2995,-7.3009,-7.3007,-7.3012,-7.3011,-7.3057,-7.3036,-7.2999,-7.2997,-7.2994,-7.2992,0,-7.1994,-7.2004,-7.221,-7.2281,-7.2303,-7.2443,-7.2504,-7.262,-7.2639,-7.2801,-7.2838,-7.287,-7.3014,-7.3026,-7.3194,-7.3197,-7.3434,-7.3412,-7.3405,-7.34,-7.3552,-7.3537,-7.4041,-7.4107,-7.3674,-7.3678,-7.3682,0,-7.2207,-7.2339,-7.2424,-7.2504,-7.2552,-7.2682,-7.2761,-7.2753,-7.2838,-7.2946,-7.305,-7.3189,-7.3298,-7.3534,-7.3573,-7.3703,-7.3682,-7.385,-7.3701,-7.3703,-7.3684,-7.3676,-7.3689,-7.3878,-7.3883,-7.3887,-7.389,0,-7.2587,-7.2586,-7.27,-7.2818,-7.2914,-7.3007,-7.3095,-7.3164,-7.3167,-7.3267,-7.3412,-7.3497,-7.3669,-7.3809,-7.3936,-7.3984,-7.394,-7.3937,-7.3979,-7.3985,-7.3975,-7.3982,-7.3482,-7.3925,-7.3921,-7.3919,-7.3917,-7.3916,-7.286,-7.2974,-7.3051,-7.3182,-7.3246,-7.3329,-7.3441,-7.3474,-7.3594,-7.373,-7.372,-7.3882,-7.3967,-7.4133,-7.4192,-7.4321,-7.4264,-7.4325,-7.4341,-7.4355,-7.4371,-7.3956,-7.4344,-7.4343,-7.4342,-7.4342,-7.4341,0,-7.3235,-7.3282,-7.3402,-7.3524,-7.3629,-7.3575,-7.367,-7.3761,-7.3903,-7.3985,-7.4094,-7.4264,-7.44,-7.4452,-7.4585,-7.4679,-7.4662,-7.4715,-7.4707,-7.4719,-7.4413,-7.4363,-7.4726,-7.4726,-7.4726,-7.4726,-7.4726,-7.4726,-7.3442,-7.3633,-7.3642,-7.3865,-7.3912,-7.4067,-7.4126,-7.4204,-7.4269,-7.4459,-7.4571,-7.4603,-7.4675,-7.4814,-7.4938,-7.495,-7.5001,-7.5063,-7.5067,-7.4779,-7.474,-7.4703,-7.4656,-7.5074,-7.5075,-7.5361,-7.5364,-7.5366]},{"header":{"parameterUnit":"m.s-1","parameterCategory":1,"la1":30.2991,"la2":30.254,"lo1":-89.0895,"lo2":-89.0444,"dy":0.0017,"dx":0.0017,"nx":28,"ny":28,"refTime":"2024-05-13T21:00:00:Z","depth":0,"parameterNumber":3,"parameterNumberName":"V-component_of_WINDS"},"data":[0,0,0,0,0,0,0,0,0,0,0,0,0,0,0,0,0,0,0,0,0,0,0,0,0,0,0,0,0,0,0,0,0,0,0,0,0,0,0,0,0,0,0,0,0,0,0,0,0,0,0,0,0,0,0,0,0,0,1.3973,1.3974,0,1.3992,1.3992,1.3992,1.4026,1.4026,1.4027,1.4028,1.4044,1.4043,1.4043,0,0,0,0,0,0,0,0,0,0,0,0,0,1.3966,1.3966,1.3973,1.3974,1.3974,1.3992,1.3992,1.3992,1.4026,1.4027,1.4027,1.4028,1.4044,1.4043,1.4043,0,0,0,0,0,0,0,0,0,0,0,0,0,1.3975,1.3966,1.3973,1.3993,1.3995,1.3991,1.3992,1.3992,1.4026,1.4027,1.4028,1.4028,1.4044,1.4043,1.4043,1.4021,0,0,1.4042,1.4042,0,0,0,0,0,0,0,0,1.3974,1.3975,1.399,1.3991,1.3994,1.4008,1.3995,1.4002,1.4025,1.4014,1.4028,1.4029,1.4031,1.4031,1.4033,1.4022,1.4023,1.4042,1.4042,1.4042,1.4042,0,0,0,0,0,0,0,1.3974,1.3975,1.398,1.399,1.3992,1.4,1.4002,1.3996,1.4016,1.4015,1.4017,1.4019,1.4032,1.4033,1.4033,1.4023,1.4042,1.4042,1.4042,1.4042,1.3996,1.3995,0,0,0,0,0,0,1.3971,1.3974,1.398,1.3981,1.3986,1.3999,1.4002,1.4002,1.4016,1.402,1.4018,1.4021,1.4033,1.4033,1.4034,1.4009,1.4042,1.4042,1.4041,1.3997,1.3996,1.3995,0,0,0,0,0,0,1.397,1.3971,1.3979,1.3978,1.398,1.3998,1.3998,1.4002,1.4003,1.4019,1.4023,1.4016,1.4034,1.4034,1.4025,1.401,1.4041,1.4041,1.3998,1.3997,1.3995,1.396,0,0,0,0,0,0,1.397,1.397,1.3963,1.3978,1.398,1.397,1.3997,1.4001,1.4003,1.4006,1.4018,1.402,1.4034,1.4025,1.4024,1.4011,1.4041,1.4,1.3998,1.3996,1.3963,1.3958,1.3953,0,0,0,0,0,1.397,1.3951,1.3962,1.3963,1.3971,1.3969,1.397,1.3987,1.4001,1.3993,1.4004,1.402,1.4012,1.4024,1.4023,1.4009,1.4001,1.3998,1.3996,1.3965,1.3959,1.3953,0,0,0,0,0,0,1.3933,1.3954,1.3966,1.3952,1.3959,1.3975,1.3965,1.398,1.3982,1.3985,1.4006,1.4008,1.3995,1.4002,1.4014,1.3989,1.4009,1.4007,1.3985,1.398,1.3975,1.3973,1.4041,0,0,0,0,0,1.3923,1.3921,1.3939,1.3925,1.3928,1.3946,1.3946,1.3959,1.3966,1.3969,1.3979,1.3984,1.3983,1.3982,1.3982,1.3964,1.3967,1.3954,1.395,1.3946,1.3943,1.3934,1.3929,1.3987,1.3987,1.3987,0,0,1.3903,1.3914,1.3911,1.3918,1.3925,1.3921,1.3948,1.3943,1.3941,1.3968,1.3959,1.3967,1.3975,1.3961,1.3955,1.3966,1.3928,1.3943,1.394,1.3939,1.3931,1.3925,1.3921,1.3986,1.3986,1.3986,0,0,1.3865,1.3873,1.3863,1.3869,1.388,1.3892,1.3889,1.3904,1.391,1.3902,1.3923,1.392,1.3917,1.3922,1.3924,1.3889,1.3904,1.3889,1.3864,1.3855,1.385,1.3846,1.3833,1.3828,1.3886,1.3886,1.3886,0,1.3838,1.3834,1.3855,1.3849,1.3852,1.3878,1.3867,1.3872,1.3881,1.3882,1.3894,1.3892,1.3899,1.3887,1.3878,1.3879,1.3877,1.3887,1.3849,1.3845,1.3842,1.383,1.3825,1.3884,1.3884,1.3885,1.3885,0,1.3801,1.3798,1.3789,1.3798,1.3799,1.3791,1.381,1.3809,1.3822,1.3833,1.3825,1.3835,1.3837,1.3835,1.3848,1.3825,1.3831,1.3846,1.3866,1.3834,1.3823,1.3818,1.3881,1.3882,1.3883,1.3883,0,0,1.3738,1.3761,1.3757,1.3761,1.3775,1.3773,1.3766,1.377,1.3768,1.3774,1.3768,1.3766,1.3781,1.3783,1.3796,1.3789,1.376,1.3805,1.3805,1.3795,1.3735,1.3722,1.3717,1.377,1.377,1.3769,1.3734,0,1.3702,1.3692,1.3711,1.3696,1.3694,1.3719,1.3713,1.372,1.3731,1.373,1.3741,1.3739,1.3758,1.376,1.3754,1.3765,1.3748,1.3768,1.3764,1.3764,1.376,1.3711,1.3698,1.3664,1.373,1.3729,1.3728,0,1.3658,1.3663,1.3648,1.3664,1.3663,1.3657,1.3663,1.3662,1.3671,1.3679,1.3682,1.3699,1.3692,1.3713,1.3704,1.3717,1.3717,1.3722,1.3722,1.3721,1.3743,1.3708,1.3654,1.3648,1.3722,1.3722,1.3723,0,1.3613,1.3616,1.3608,1.3611,1.3629,1.3624,1.3631,1.3642,1.3643,1.3647,1.3648,1.3651,1.3653,1.3655,1.3671,1.3685,1.366,1.3682,1.3666,1.3665,1.3658,1.3658,1.3602,1.366,1.366,1.366,1.366,0,1.357,1.3559,1.3588,1.3582,1.3571,1.3594,1.3582,1.3592,1.3601,1.3597,1.362,1.3615,1.3638,1.3637,1.365,1.364,1.3641,1.3646,1.365,1.3644,1.3643,1.3643,1.3645,1.3659,1.3659,1.3659,1.3659,0,1.3517,1.3536,1.3528,1.3546,1.3551,1.3542,1.3557,1.3553,1.3565,1.356,1.3561,1.358,1.3579,1.3596,1.3599,1.3608,1.3592,1.36,1.3589,1.3591,1.3573,1.3574,1.3514,1.3507,1.357,1.357,1.3569,0,1.3488,1.3481,1.3499,1.3499,1.3505,1.3504,1.3506,1.3528,1.3528,1.3539,1.3533,1.3534,1.3536,1.3534,1.3548,1.355,1.3557,1.3536,1.3557,1.3552,1.3556,1.3555,1.3554,1.3531,1.353,1.353,1.3529,0,1.3434,1.3444,1.3446,1.3451,1.3453,1.3458,1.3464,1.3462,1.3486,1.3486,1.3486,1.3488,1.3491,1.3492,1.3497,1.3503,1.3519,1.3523,1.3519,1.3512,1.3505,1.3508,1.3575,1.3523,1.3524,1.3524,1.3525,1.3525,1.3391,1.3386,1.3398,1.34,1.3407,1.3413,1.341,1.3422,1.3423,1.3428,1.3441,1.3439,1.3449,1.3457,1.3462,1.3461,1.3471,1.3465,1.3464,1.3462,1.3458,1.3507,1.3462,1.3462,1.3462,1.3462,1.3462,0,1.3337,1.3347,1.3348,1.3357,1.3358,1.3376,1.3384,1.3383,1.3381,1.339,1.3392,1.3392,1.3393,1.3407,1.341,1.3406,1.3413,1.3406,1.3406,1.3407,1.3449,1.3452,1.34,1.34,1.34,1.34,1.34,1.34,1.331,1.3302,1.3313,1.3309,1.3319,1.3318,1.3321,1.3326,1.3333,1.3332,1.3334,1.3344,1.3354,1.3358,1.3359,1.3364,1.3363,1.3352,1.3359,1.3398,1.3404,1.3409,1.3412,1.3352,1.3352,1.3317,1.3316,1.3316]}]]